Location: Czu?�w
(50.1404°N, 18.9919°E)
Time: 12:39:19
(UTC+00:00)

H-2A R/B - Pass Details

Date: 27 October 2020
Orbit: 577 x 656 km, 98.5° (Epoch: 29 November)

Event Time Altitude Azimuth Distance (km) Brightness Sun altitude
Rises 16:26:13 0° 9° (N) 2,859 5.3 -9.8°
Reaches altitude 10° 16:28:29 10° 3° (N) 1,940 4.5 -10.1°
Maximum altitude 16:32:28 44° 292° (WNW) 822 3.2 -10.7°
Drops below altitude 10° 16:36:22 10° 220° (SW) 1,896 5.3 -11.4°
Sets 16:38:33 0° 214° (SW) 2,786 6.1 -11.7°
